Lapse_Rate
6.5 6.5 6.5 6.5 6.5 6.5 6.5 6.5 6.5 6.5 6.5 6.5 6.5 6.5 6.9 7.2 6.9 6.0 5.6 5.2 4.4 4.0 4.4 4.5 4.1 4.6 4.8 4.8 4.7 4.8 5.1 5.7 6.1 6.2 6.2 6.4 6.4 6.3 6.6 6.8 7.7 7.7 7.5 7.2
6.5 6.5 6.5 6.5 6.5 6.5 6.5 6.5 6.5 6.5 6.5 6.5 6.6 7.0 6.9 6.9 6.4 6.4 5.7 5.1 4.6 4.4 4.6 4.5 4.8 5.0 4.8 5.0 5.1 4.8 5.3 5.5 6.1 6.1 6.5 6.7 6.6 6.4 6.9 7.4 7.9 7.6 7.3 6.9
6.5 6.5 6.5 6.5 6.5 6.5 6.5 6.5 6.5 6.5 6.5 6.6 6.5 6.7 6.8 7.0 6.7 6.0 5.1 4.9 4.7 4.2 4.6 5.2 5.0 4.7 5.3 5.5 4.8 4.8 5.1 5.6 6.0 6.3 6.6 7.0 6.7 6.9 7.1 7.7 7.8 7.5 6.5 6.1
6.5 6.5 6.5 6.5 6.5 6.5 6.5 6.5 6.5 6.5 6.5 6.6 6.7 5.8 5.7 5.9 5.0 4.8 4.4 4.7 4.6 5.0 5.0 5.1 5.2 5.1 4.8 4.9 5.0 4.9 5.4 5.9 6.4 6.7 6.9 7.2 6.9 7.0 7.1 7.5 7.3 7.1 6.4 6.3
6.5 6.5 6.5 6.5 6.5 6.5 6.5 6.5 6.5 6.5 6.5 6.8 5.8 6.1 6.2 4.6 4.2 4.4 4.2 4.3 4.8 5.2 5.4 4.7 5.1 5.0 4.9 5.1 5.0 5.0 5.8 6.6 7.0 7.0 7.1 7.2 7.3 7.2 7.2 7.1 7.2 6.7 6.1 5.5
6.5 6.5 6.5 6.5 6.5 6.1 6.6 6.5 6.6 6.6 6.6 6.7 7.0 6.5 6.5 3.4 3.4 3.5 4.2 4.6 4.9 4.8 4.3 4.5 4.6 4.3 4.6 5.1 5.1 6.1 6.6 6.8 7.1 7.1 7.0 7.1 7.4 7.1 6.8 6.7 6.4 5.8 5.0 4.9
6.5 6.5 6.5 6.5 6.5 5.8 6.5 6.5 5.4 5.0 5.0 6.4 6.5 5.7 4.0 1.7 1.7 3.5 4.1 3.7 3.0 4.1 4.3 4.8 4.3 4.3 5.0 4.9 5.7 6.3 6.1 6.4 6.6 6.8 6.6 7.0 7.1 6.9 6.6 6.5 5.6 4.7 4.4 4.5
6.5 6.5 6.5 6.0 6.4 6.5 6.1 3.9 3.5 2.9 2.7 3.4 3.1 1.9 3.6 2.8 2.5 3.2 3.7 3.6 4.0 4.4 4.4 3.9 4.4 4.5 5.0 5.4 6.2 5.8 6.0 5.8 5.7 5.7 6.1 6.3 6.5 6.7 5.8 5.6 5.5 4.7 4.2 4.8
6.5 6.5 5.9 5.1 5.0 3.4 3.6 4.4 4.3 3.3 2.8 3.2 3.3 3.9 4.3 3.8 3.6 3.8 3.9 4.0 4.8 5.2 4.2 4.3 4.2 4.3 5.3 6.0 5.4 5.2 5.1 5.0 4.9 5.3 6.0 6.2 6.4 6.7 6.2 5.7 6.0 6.1 6.3 6.4
6.5 6.5 6.4 4.4 4.1 3.3 3.5 4.2 3.5 3.2 4.3 3.0 3.9 3.9 4.3 3.6 3.8 4.4 5.0 5.6 5.6 5.2 4.4 4.2 4.3 4.3 4.7 4.7 4.7 4.4 4.4 4.5 5.0 5.6 6.2 7.2 6.9 6.9 6.7 6.1 6.6 7.1 7.3 7.3
6.5 6.3 5.0 3.9 3.0 3.8 3.9 2.5 2.4 2.5 2.6 3.0 3.7 3.8 4.1 4.3 3.9 4.1 4.8 4.4 5.5 4.1 3.9 4.4 4.2 4.4 4.3 4.1 3.6 3.7 4.3 5.5 5.4 6.5 6.8 7.3 7.6 7.8 6.9 7.1 7.5 8.0 7.6 7.6
6.5 4.6 5.9 4.9 4.6 4.1 4.1 4.3 4.1 3.2 2.2 2.3 3.8 4.0 4.3 4.7 5.5 5.5 5.1 5.0 4.1 4.1 4.2 4.2 3.9 4.1 3.7 3.3 3.0 3.8 5.1 7.3 8.1 7.6 7.4 7.3 6.9 7.4 5.5 5.7 5.0 5.7 6.0 6.4
5.7 4.1 4.2 4.2 3.8 4.0 4.4 4.1 2.8 2.8 3.6 3.8 4.6 3.9 4.8 5.3 4.9 4.3 5.5 4.6 4.5 4.8 4.4 4.0 3.9 3.5 3.3 2.9 3.4 4.7 5.8 7.2 7.3 7.0 6.9 6.8 6.1 6.3 7.2 6.7 5.3 6.1 6.8 7.3
4.0 4.5 4.9 4.0 5.4 3.1 2.6 1.6 2.0 3.1 3.8 3.5 5.1 5.8 5.3 4.6 4.5 5.4 4.6 4.7 4.4 4.1 4.2 3.8 3.5 3.5 3.2 3.8 4.7 5.5 6.3 5.7 6.5 6.7 7.2 6.9 6.7 6.4 6.3 6.7 6.6 7.2 6.6 6.9
4.2 4.5 5.3 3.4 2.9 2.6 3.3 4.0 3.5 5.0 6.0 6.0 5.4 4.7 5.1 5.3 4.8 4.6 4.5 4.2 3.8 4.1 4.2 4.0 3.6 3.9 4.3 4.8 5.2 5.6 6.7 7.2 6.1 6.0 6.1 6.0 6.0 5.8 5.7 6.0 6.3 6.5 7.5 5.8
4.4 3.5 3.6 3.4 3.4 4.5 4.6 4.5 3.7 5.3 5.3 5.3 5.6 5.9 5.2 4.6 5.2 4.8 4.2 4.1 3.3 4.3 5.3 2.9 1.7 4.0 4.3 4.7 5.1 5.9 7.0 5.8 5.9 6.2 6.2 6.3 6.4 6.4 6.6 6.9 7.3 7.5 7.7 7.7
5.9 4.9 4.6 5.5 4.7 5.1 5.3 5.9 5.2 5.7 6.0 6.0 5.4 4.8 5.1 4.0 3.0 4.0 3.9 3.0 2.5 2.1 2.1 1.6 2.5 4.3 3.5 4.3 5.2 6.7 7.7 7.5 6.4 5.8 6.0 6.3 6.3 6.8 7.1 7.2 7.3 7.7 7.7 7.2
4.7 5.2 5.7 5.2 5.4 5.4 5.6 5.6 5.6 5.9 5.4 4.7 2.2 2.0 2.1 1.9 3.4 3.3 2.7 1.8 0.7 0.3 1.3 2.3 2.5 3.0 3.5 4.8 5.7 6.6 6.7 6.9 6.7 6.3 6.1 6.4 6.6 6.6 6.9 6.8 6.7 6.8 7.1 7.2
5.6 5.5 5.6 5.4 5.4 5.0 5.2 5.0 3.6 2.9 1.7 1.4 1.7 2.6 1.8 1.8 2.1 2.1 1.4 0.5 0.7 1.6 3.5 2.8 2.3 2.3 3.3 4.1 4.7 5.5 5.8 5.9 6.3 6.4 6.2 6.0 5.9 6.0 5.8 5.7 5.9 5.7 6.1 6.7
5.7 5.5 5.2 4.7 3.3 2.5 3.1 2.1 1.9 2.7 2.8 1.8 1.3 2.0 2.4 2.4 1.4 1.0 1.2 1.4 2.4 3.7 2.6 2.6 2.5 2.9 3.4 4.2 4.0 6.1 5.7 6.0 6.5 6.6 6.6 6.3 5.8 5.7 5.5 4.8 5.5 5.9 5.9 6.0
4.9 4.0 3.1 2.7 2.4 1.8 1.9 1.7 1.5 2.7 2.1 0.8 1.4 2.4 2.0 2.3 1.7 0.9 2.9 3.4 3.8 2.3 2.2 1.2 2.6 4.3 5.3 5.1 6.0 6.1 6.3 6.4 6.7 6.8 6.8 6.5 6.0 5.5 5.6 5.8 5.8 5.8 5.8 5.7
4.8 3.5 2.3 2.0 1.7 3.1 2.4 2.2 2.4 2.4 2.7 2.4 1.6 0.7 0.6 2.0 2.5 2.1 1.6 3.5 5.4 2.7 3.5 4.2 4.5 4.5 5.2 4.9 5.8 5.6 6.2 6.5 6.7 6.7 6.8 6.6 6.5 6.7 6.6 6.6 6.7 6.5 6.3 6.1
4.1 3.3 3.2 2.8 2.7 3.0 3.0 2.8 1.7 1.9 1.6 2.0 1.7 2.3 2.8 3.3 3.8 4.2 5.2 5.7 5.0 5.0 4.7 4.9 4.5 4.0 4.3 4.4 5.1 6.2 6.6 6.8 6.8 6.7 6.9 7.1 7.1 7.2 7.2 7.4 7.4 7.3 7.1 7.0
3.9 3.8 3.2 2.0 1.8 2.9 2.6 2.5 2.2 2.6 2.8 3.1 3.5 3.7 3.2 3.3 3.1 5.4 5.3 4.7 5.1 5.4 5.2 5.1 5.2 4.9 4.5 5.5 6.1 6.8 6.7 6.0 5.4 4.8 5.2 5.4 5.4 5.9 6.6 6.7 6.5 6.6 6.4 6.2
2.7 3.0 2.7 2.5 2.3 2.4 2.7 2.9 3.3 3.5 3.7 4.0 4.3 5.1 6.1 8.0 6.5 4.9 5.4 5.6 6.1 6.0 5.7 5.7 5.7 5.5 4.4 4.1 3.7 3.1 3.1 2.4 1.4 1.4 1.1 1.5 1.6 1.6 1.7 1.6 1.1 1.3 1.4 3.2
2.9 2.8 3.0 2.9 3.1 3.0 2.6 2.5 2.6 3.4 3.2 3.4 4.0 4.8 5.2 5.6 6.4 7.9 8.2 8.4 8.0 7.5 6.7 4.1 3.0 2.4 1.4 1.0 1.2 0.7 0.8 0.9 0.9 1.0 0.8 1.0 0.7 0.7 0.4 0.1 -0.2 -0.6 -1.0 -0.9
2.6 1.8 2.3 2.8 2.0 1.6 1.1 1.6 1.6 2.2 3.1 3.5 3.6 4.2 4.6 5.4 5.9 6.2 6.4 6.6 7.0 5.7 3.2 1.3 0.4 0.7 0.0 -0.3 -0.3 -0.3 0.2 0.6 0.1 0.2 0.5 0.6 0.1 -0.0 -0.3 -0.5 -0.4 -0.5 -0.5 -0.6
Wind_Speed
1 1 1 2 4 8 7 4 6 4 8 6 9 12 11 9 12 14 14 12 11 12 11 11 9 6 5 3 3 4 2 4 5 5 6 6 8 9 7 7 5 7 7 4
4 1 3 3 5 7 6 3 10 4 11 9 1 7 11 14 15 15 14 13 12 13 13 9 8 7 5 4 4 2 5 6 5 6 6 7 8 9 8 7 6 4 5 2
3 2 2 5 9 10 5 5 7 8 8 5 6 11 15 16 16 15 14 14 13 14 13 12 10 8 6 5 2 4 6 7 7 6 7 8 9 9 9 8 7 6 3 2
2 1 1 4 2 2 9 6 12 4 4 6 3 3 7 13 16 15 14 13 12 11 11 11 9 6 5 4 4 5 7 8 7 7 8 7 9 9 8 8 8 5 4 4
3 3 5 4 3 5 6 5 10 12 5 3 4 2 6 13 13 15 14 11 10 11 9 7 9 6 5 3 4 5 7 8 8 8 8 8 9 8 8 7 5 4 3 3
3 2 4 4 2 3 3 4 2 8 5 7 8 4 6 12 14 12 9 7 7 7 6 8 6 5 3 3 3 6 8 8 9 9 9 9 8 7 6 5 4 3 3 3
2 3 7 6 1 2 3 4 1 6 7 11 7 6 2 4 7 11 9 8 8 8 6 6 5 5 3 2 6 6 6 8 9 9 8 9 8 5 5 5 3 4 4 3
3 1 6 5 2 5 4 2 2 6 9 13 12 6 4 4 7 10 11 12 11 10 7 6 5 3 2 5 5 5 7 9 10 9 8 7 7 4 2 3 4 4 4 4
7 4 4 5 4 2 2 3 3 3 6 10 7 7 7 7 9 9 12 10 8 8 7 4 3 1 4 5 4 6 9 10 9 10 9 7 6 4 3 4 4 4 4 5
1 2 7 10 9 8 7 10 6 7 6 9 12 10 8 9 10 10 9 10 6 6 4 2 0 1 3 3 5 7 8 9 9 9 9 5 4 3 4 4 4 4 5 5
4 8 5 7 8 10 8 6 8 6 6 9 10 11 12 12 10 9 8 4 4 4 3 1 2 3 3 4 5 5 6 7 8 6 8 7 5 4 5 5 5 4 5 5
5 8 4 6 4 3 4 6 6 6 3 4 7 12 13 11 10 7 6 5 5 4 2 1 2 5 5 3 2 4 6 6 4 5 5 6 5 5 8 8 6 10 9 7
5 1 4 5 7 5 6 6 2 3 5 9 11 13 14 11 6 2 4 6 5 3 2 2 4 6 4 3 4 6 7 7 5 5 4 5 5 5 6 5 5 8 10 11
4 2 5 1 4 7 4 8 14 16 16 15 15 13 10 6 2 7 8 5 3 3 3 3 5 6 3 4 5 7 7 8 6 5 5 5 4 5 6 7 6 5 7 8
9 4 3 5 8 9 10 12 16 15 14 15 11 8 4 6 9 5 4 3 3 4 5 6 6 4 3 5 6 7 6 6 5 5 5 5 4 5 6 6 6 6 6 5
7 10 11 11 12 11 13 14 15 10 10 8 5 7 7 6 5 4 3 3 4 5 7 6 4 7 5 6 7 7 7 8 8 6 5 5 5 5 5 6 6 7 7 8
1 5 9 10 12 13 13 10 8 5 2 3 6 3 4 4 3 5 5 2 4 7 6 5 8 7 6 6 6 5 5 6 10 6 5 6 7 7 7 6 6 7 7 7
14 14 12 11 10 10 6 4 3 4 4 3 3 3 3 4 5 5 4 4 6 7 8 9 7 7 8 8 7 5 5 6 6 6 5 7 8 9 8 7 8 8 8 7
11 12 10 10 8 6 5 4 2 3 3 3 3 4 3 4 4 4 5 6 7 7 9 5 6 6 8 9 7 6 6 6 6 6 7 9 8 9 8 8 8 8 8 8
6 4 4 3 4 3 2 2 3 3 3 2 3 3 4 5 3 4 4 7 8 7 5 7 7 7 8 8 8 7 7 7 8 7 7 8 8 8 8 9 9 9 9 8
5 4 3 4 4 4 4 3 4 5 5 3 4 5 5 7 5 4 8 7 7 7 8 7 7 7 6 6 6 5 6 7 8 8 8 7 8 8 9 9 9 9 9 9
1 2 3 4 4 5 5 4 4 5 5 5 4 5 5 8 7 6 8 9 8 6 6 6 7 9 7 8 6 6 7 8 8 7 7 7 6 6 6 7 7 7 7 8
1 2 3 5 4 4 4 4 5 4 5 6 7 8 8 8 6 7 9 4 6 8 7 7 10 12 12 6 5 6 7 8 9 7 5 4 5 6 6 7 7 7 8 9
4 6 4 4 4 7 10 11 11 9 9 8 8 9 7 9 11 6 7 14 17 15 11 10 11 14 11 6 5 4 3 4 6 7 7 9 6 6 7 8 9 9 9 11
7 8 8 9 10 7 10 11 9 9 10 11 10 10 10 8 6 12 12 10 16 13 11 16 16 11 3 4 4 4 4 5 5 4 4 5 5 5 6 7 8 9 10 10
10 7 7 9 7 7 7 8 8 8 9 9 9 9 10 9 10 11 11 15 14 17 9 4 5 4 6 7 6 6 5 5 5 5 5 5 5 6 6 8 9 9 10 11
8 9 6 5 6 7 7 7 7 8 8 9 11 10 11 11 12 13 15 13 13 7 7 7 7 8 6 7 7 6 6 5 6 6 6 6 6 7 8 9 9 10 10 10
Wind_Direction
99 19 250 221 181 187 204 179 191 227 214 244 232 217 203 181 164 167 177 177 178 179 186 189 185 178 183 181 200 227 259 267 279 301 307 317 328 325 314 305 310 310 299 311
183 347 13 277 238 206 229 229 255 251 268 221 333 155 177 186 180 186 189 192 192 195 199 195 195 197 190 209 227 230 252 263 284 283 301 323 323 315 311 311 298 300 307 314
239 2 12 318 224 199 191 206 200 217 242 176 199 205 200 191 193 194 198 199 199 201 201 204 199 196 203 216 218 245 257 266 269 287 301 306 314 311 299 299 291 299 273 223
163 27 250 244 164 180 219 234 217 260 218 204 239 203 196 199 195 202 201 203 205 202 204 207 189 191 204 218 253 273 274 273 278 287 284 295 307 303 299 297 292 280 214 176
157 207 304 287 197 182 183 281 211 223 203 165 115 109 255 208 207 206 202 202 203 200 198 182 185 196 213 259 285 276 278 286 285 285 278 282 295 299 302 299 301 255 203 161
133 179 231 247 259 196 165 284 282 204 161 166 152 175 244 191 200 204 193 190 190 179 160 163 174 173 197 246 279 295 302 297 295 290 269 273 287 291 296 287 284 197 161 137
152 227 283 253 290 167 107 257 221 189 178 169 197 207 151 156 181 178 169 149 127 135 157 155 153 153 179 283 291 302 298 301 298 290 275 275 277 270 287 280 229 182 171 177
110 185 272 186 131 168 222 259 241 204 198 198 216 160 176 149 142 140 142 142 135 137 137 135 134 126 286 281 299 309 309 305 304 303 299 283 255 262 260 222 201 190 199 226
195 219 235 218 235 227 174 250 245 228 238 230 224 202 156 148 140 134 132 126 128 128 122 118 103 134 271 283 317 316 311 313 314 317 308 278 243 224 180 194 206 212 231 247
121 228 236 235 261 259 241 242 243 232 249 204 220 174 164 142 137 128 129 123 130 109 121 136 7 325 274 296 317 315 315 319 318 320 324 281 244 216 200 201 213 242 258 259
261 277 276 262 238 255 265 247 258 250 239 226 191 173 156 146 133 130 128 86 150 147 159 202 334 304 309 316 316 311 310 312 316 308 316 293 259 235 209 207 214 254 267 256
231 242 199 250 280 276 258 262 264 227 198 152 164 147 136 126 126 118 133 176 166 161 173 262 290 295 299 318 301 288 287 292 296 299 296 280 263 244 220 240 219 231 241 231
255 66 220 263 277 266 275 309 302 169 139 126 122 123 117 112 99 107 213 175 185 201 215 259 288 286 310 304 269 275 282 288 294 294 293 290 257 235 239 209 247 257 246 236
260 251 280 220 310 4 61 84 90 94 97 94 88 71 76 73 96 225 218 208 194 205 239 266 270 280 310 268 269 272 274 267 278 277 279 273 260 252 239 237 246 256 234 245
357 307 2 77 59 66 86 99 93 92 87 84 79 94 135 201 234 234 229 208 223 245 259 251 248 291 268 268 278 281 276 278 269 266 264 254 263 260 243 234 244 258 262 253
26 51 59 73 84 79 88 89 89 80 90 93 134 200 217 235 249 246 228 225 209 241 248 246 267 263 265 276 281 283 281 270 263 266 269 264 241 217 226 236 250 259 260 252
119 57 69 76 78 81 81 82 86 98 152 232 237 248 241 239 251 254 262 257 241 254 255 253 256 271 266 262 264 272 280 287 284 264 262 260 251 241 233 238 248 254 256 244
79 78 83 92 94 92 91 103 136 210 243 298 314 274 246 220 245 269 287 294 274 273 259 248 247 258 251 244 246 239 247 265 267 265 263 263 260 248 244 247 251 253 257 255
89 98 105 117 133 153 178 214 260 310 329 332 319 299 276 260 262 275 301 292 279 274 272 234 233 244 248 253 254 263 264 264 264 262 262 265 263 256 241 243 249 248 251 255
98 105 106 80 46 34 14 13 317 310 314 263 262 281 301 296 297 283 280 274 265 258 273 268 269 263 259 265 256 266 261 254 261 266 264 264 264 260 247 240 248 251 250 248
72 50 45 33 14 9 9 350 347 350 344 347 329 307 298 303 299 269 275 278 272 236 245 252 254 257 262 262 263 255 259 262 261 265 268 266 271 262 251 245 244 246 251 250
105 46 6 7 8 350 4 349 352 340 344 338 316 302 300 289 286 273 238 249 282 241 252 264 257 249 250 247 248 252 266 264 257 264 269 258 266 273 273 268 267 266 267 265
67 47 32 29 18 353 350 29 5 348 341 340 334 330 322 308 305 308 309 300 272 282 276 271 260 250 250 238 237 251 265 276 255 257 256 265 275 284 287 291 289 286 284 283
55 46 44 41 51 35 19 0 356 359 355 347 345 337 327 325 320 313 301 304 305 302 291 281 270 260 246 239 233 262 322 22 18 3 5 5 355 336 322 316 306 298 292 288
61 59 51 44 40 27 10 357 344 344 342 339 334 326 325 326 294 310 310 301 303 298 298 294 286 268 153 110 79 49 31 30 21 17 13 9 2 349 336 328 319 313 307 300
55 49 46 44 35 15 359 352 346 343 340 333 331 333 333 324 314 309 307 307 302 301 291 16 45 48 73 70 69 60 49 34 22 19 5 356 343 332 324 320 315 309 303 298
59 39 28 29 19 9 0 354 352 345 340 330 321 324 321 321 323 319 318 317 315 0 47 50 41 18 50 74 65 55 46 36 27 11 1 350 340 331 325 320 313 308 299 295